DW7240 Weather Reports


time (UTC)temp
F
wind
direction
speed
knots
gust
knots
rain 1hr
in
rain 24hr
in
rain mn
in
humidity
%
barometer
mb
20260504014503 43 240 6.1 6.1 0.00 0.00 0.00 95 1006.9
20260504014004 44 240 6.1 6.1 0.00 0.00 0.00 94 1006.9
20260504013504 44 240 6.1 6.1 0.00 0.00 0.00 94 1006.9
20260504013003 45 240 6.1 6.1 0.00 0.00 0.00 94 1006.9
20260504012503 45 240 6.1 6.1 0.00 0.00 0.00 95 1006.9
20260504012004 45 240 6.1 6.1 0.00 0.00 0.00 95 1006.8
20260504010503 46 240 6.1 6.1 0.00 0.00 0.00 93 1006.8
20260504010003 46 240 6.1 6.1 0.00 0.00 0.00 91 1007.0
20260504005504 46 240 6.1 6.1 0.00 0.00 0.00 90 1007.0
20260504005003 46 240 6.1 6.1 0.00 0.00 0.00 90 1007.0
20260504004504 46 240 6.1 6.1 0.00 0.00 0.00 89 1007.0
20260504003503 46 240 6.1 6.1 0.00 0.00 0.00 90 1006.9
20260504003003 46 240 6.1 6.1 0.00 0.00 0.00 90 1007.1
20260504002504 46 240 6.1 6.1 0.00 0.00 0.00 89 1006.9
20260504002003 46 240 6.1 6.1 0.00 0.00 0.00 89 1006.9
20260504001503 47 240 6.1 6.1 0.00 0.00 0.00 88 1006.9
20260504001003 47 240 6.1 6.1 0.00 0.00 0.00 86 1006.9
20260504000503 47 240 6.1 6.1 0.00 0.00 0.00 86 1006.8
20260504000004 46 240 6.1 6.1 0.00 0.00 0.00 86 1006.8
20260503235503 46 240 6.1 6.1 0.00 0.00 0.00 86 1006.9
20260503235003 46 240 6.1 6.1 0.00 0.00 0.00 86 1006.9
20260503234503 46 240 6.1 6.1 0.00 0.00 0.00 87 1006.9
20260503233503 46 240 6.1 6.1 0.00 0.00 0.00 89 1006.9
20260503233003 46 240 6.1 6.1 0.00 0.00 0.00 90 1007.0
20260503232004 46 240 6.1 6.1 0.00 0.00 0.00 92 1007.1
20260503230504 45 220 2.6 2.6 0.00 0.00 0.00 93 1007.1
20260503230003 45 220 2.6 2.6 0.00 0.00 0.00 93 1007.2
20260503225003 45 220 2.6 2.6 0.00 0.00 0.00 93 1007.3
20260503224004 45 220 2.6 2.6 0.00 0.00 0.00 94 1007.5
20260503223503 45 220 2.6 2.6 0.00 0.00 0.00 93 1007.5
20260503223003 45 220 2.6 2.6 0.00 0.00 0.00 92 1007.7
20260503221003 45 190 7.0 7.0 0.00 0.00 0.00 90 1007.8
20260503220503 44 190 7.0 7.0 0.00 0.00 0.00 88 1007.7
20260503220003 44 190 7.0 7.0 0.00 0.00 0.00 87 1007.6
20260503215503 44 190 7.0 7.0 0.00 0.00 0.00 87 1007.7
20260503215004 45 190 7.0 7.0 0.00 0.00 0.00 86 1007.7
20260503214503 45 190 7.0 7.0 0.00 0.00 0.00 84 1007.8
20260503214003 45 190 7.0 7.0 0.00 0.00 0.00 83 1007.5
20260503213503 45 190 7.0 7.0 0.00 0.00 0.00 81 1007.5
20260503213004 46 190 7.0 7.0 0.00 0.00 0.00 79 1007.3
20260503212503 46 190 7.0 7.0 0.00 0.00 0.00 76 1007.2
20260503211503 47 180 7.8 7.8 0.00 0.00 0.00 72 1007.3
20260503211003 47 180 7.8 7.8 0.00 0.00 0.00 71 1007.2
20260503210503 47 180 7.8 7.8 0.00 0.00 0.00 70 1007.1
20260503205504 48 200 7.8 7.8 0.00 0.00 0.00 69 1007.0
20260503205003 49 200 7.8 7.8 0.00 0.00 0.00 70 1006.9
20260503204503 49 180 7.8 7.8 0.00 0.00 0.00 68 1007.2
20260503204004 50 180 7.8 7.8 0.00 0.00 0.00 66 1007.4
20260503203503 50 180 7.8 7.8 0.00 0.00 0.00 64 1007.5
20260503203003 51 180 7.8 7.8 0.00 0.00 0.00 63 1007.4
20260503201503 52 200 7.8 18.2 0.00 0.00 0.00 59 1007.3
20260503201003 53 200 7.8 18.2 0.00 0.00 0.00 59 1007.4
20260503200003 53 200 7.8 18.2 0.00 0.00 0.00 61 1007.5
20260503195503 53 200 7.8 18.2 0.00 0.00 0.00 62 1007.5
20260503195004 53 200 7.8 18.2 0.00 0.00 0.00 60 1007.8
20260503194504 53 200 7.8 18.2 0.00 0.00 0.00 60 1007.9
20260503194003 53 200 7.8 18.2 0.00 0.00 0.00 58 1008.3
20260503193504 53 200 7.8 18.2 0.00 0.00 0.00 58 1008.4
20260503193003 53 200 7.8 18.2 0.00 0.00 0.00 58 1008.6
20260503192503 53 200 7.8 18.2 0.00 0.00 0.00 59 1008.7
20260503192004 52 200 7.8 18.2 0.00 0.00 0.00 56 1008.8
20260503191004 52 190 8.7 18.2 0.00 0.00 0.00 55 1008.8
20260503190503 52 190 8.7 18.2 0.00 0.00 0.00 54 1008.9
20260503190004 52 190 8.7 18.2 0.00 0.00 0.00 52 1009.0
20260503185504 53 190 8.7 18.2 0.00 0.00 0.00 51 1009.1
20260503185004 53 190 8.7 18.2 0.00 0.00 0.00 51 1009.2
20260503184504 52 190 8.7 18.2 0.00 0.00 0.00 53 1009.2
20260503184003 52 190 8.7 18.2 0.00 0.00 0.00 52 1009.3
20260503183504 51 190 8.7 18.2 0.00 0.00 0.00 52 1009.4
20260503183003 51 190 8.7 18.2 0.00 0.00 0.00 51 1009.5
20260503182504 51 190 8.7 18.2 0.00 0.00 0.00 49 1009.5
20260503182005 51 190 8.7 18.2 0.00 0.00 0.00 48 1009.5
20260503181504 51 180 11.3 11.3 0.00 0.00 0.00 51 1009.6
20260503181004 50 180 11.3 11.3 0.00 0.00 0.00 49 1009.7
20260503180504 50 180 11.3 11.3 0.00 0.00 0.00 51 1009.8
20260503180004 50 180 11.3 11.3 0.00 0.00 0.00 52 1010.0
20260503175504 49 180 11.3 11.3 0.00 0.00 0.00 52 1010.0
20260503175003 49 180 11.3 11.3 0.00 0.00 0.00 57 1009.9
20260503174503 48 180 11.3 11.3 0.00 0.00 0.00 59 1010.0
20260503174004 48 180 11.3 11.3 0.00 0.00 0.00 59 1010.3
20260503173503 48 180 11.3 11.3 0.00 0.00 0.00 61 1010.4
20260503173004 47 180 11.3 11.3 0.00 0.00 0.00 60 1010.5
20260503172504 48 180 11.3 11.3 0.00 0.00 0.00 62 1010.6
20260503172004 47 180 11.3 11.3 0.00 0.00 0.00 62 1010.6
20260503171503 48 190 7.8 7.8 0.00 0.00 0.00 63 1010.6
20260503171003 48 190 7.8 7.8 0.00 0.00 0.00 63 1010.6
20260503170504 48 190 7.8 7.8 0.00 0.00 0.00 64 1010.7
20260503151004 42 200 8.7 8.7 0.00 0.00 0.00 75 1011.8
20260503150504 43 200 8.7 8.7 0.00 0.00 0.00 74 1012.0
20260503131003 39 20 2.6 2.6 0.00 0.00 0.00 69 1012.4
20260503090504 29 320 1.7 1.7 0.00 0.00 0.00 79 1012.6
20260503081504 31 320 1.7 1.7 0.00 0.00 0.00 73 1012.7
20260503081004 31 320 1.7 1.7 0.00 0.00 0.00 73 1012.8
20260503072003 31 320 1.7 2.6 0.00 0.00 0.00 75 1012.8
20260503071004 31 0 2.6 2.6 0.00 0.00 0.00 76 1012.8
20260503055004 32 350 1.7 1.7 0.00 0.00 0.00 80 1013.2
20260503054504 32 350 1.7 1.7 0.00 0.00 0.00 80 1013.3
20260503054003 32 350 1.7 1.7 0.00 0.00 0.00 80 1013.3
20260503053004 33 350 1.7 1.7 0.00 0.00 0.00 80 1013.4
20260503052004 33 350 1.7 1.7 0.00 0.00 0.00 80 1013.5
20260503050503 33 10 1.7 1.7 0.00 0.00 0.00 79 1013.5
20260503050004 33 10 1.7 1.7 0.00 0.00 0.00 79 1013.5
20260503045504 33 10 1.7 1.7 0.00 0.00 0.00 79 1013.5
20260503045004 33 10 1.7 1.7 0.00 0.00 0.00 79 1013.6
20260503044503 33 10 1.7 1.7 0.00 0.00 0.00 80 1013.6
20260503044004 33 10 1.7 1.7 0.00 0.00 0.00 81 1013.6
20260503043504 33 10 1.7 1.7 0.00 0.00 0.00 83 1013.7
20260503043004 33 10 1.7 1.7 0.00 0.00 0.00 84 1013.7
20260503042504 33 10 1.7 1.7 0.00 0.00 0.00 82 1013.6
20260503042004 33 10 1.7 1.7 0.00 0.00 0.00 81 1013.7
20260503041504 34 330 1.7 1.7 0.00 0.00 0.00 79 1013.6
20260503041004 34 330 1.7 1.7 0.00 0.00 0.00 78 1013.7
20260503040504 34 330 1.7 1.7 0.00 0.00 0.00 77 1013.7
20260503040004 34 330 1.7 1.7 0.00 0.00 0.00 77 1013.6
20260503035004 35 330 1.7 1.7 0.00 0.00 0.00 77 1013.7
20260503034504 35 330 1.7 1.7 0.00 0.00 0.00 77 1013.7
20260503034004 34 330 1.7 1.7 0.00 0.00 0.00 78 1013.7
20260503033504 34 330 1.7 1.7 0.00 0.00 0.00 78 1013.7
20260503033004 34 330 1.7 1.7 0.00 0.00 0.00 79 1013.6
20260503032503 34 330 1.7 1.7 0.00 0.00 0.00 78 1013.7
20260503032004 34 330 1.7 2.6 0.00 0.00 0.00 78 1013.7
20260503031504 35 270 2.6 2.6 0.00 0.00 0.00 79 1013.7
20260503031004 35 270 2.6 2.6 0.00 0.00 0.00 77 1013.6
20260503030504 35 270 2.6 2.6 0.00 0.00 0.00 77 1013.7
20260503025504 35 270 2.6 2.6 0.00 0.00 0.00 78 1013.7
20260503025003 36 270 2.6 2.6 0.00 0.00 0.00 75 1013.7
20260503024504 36 270 2.6 2.6 0.00 0.00 0.00 75 1013.8
20260503024003 36 270 2.6 2.6 0.00 0.00 0.00 76 1013.9
20260503023504 36 270 2.6 2.6 0.00 0.00 0.00 74 1013.9
20260503023004 36 270 2.6 2.6 0.00 0.00 0.00 74 1013.9
20260503022504 36 270 2.6 2.6 0.00 0.00 0.00 73 1013.9
20260503022004 36 270 2.6 2.6 0.00 0.00 0.00 73 1013.9
20260503021504 36 270 2.6 2.6 0.00 0.00 0.00 73 1013.9
20260503020504 37 270 2.6 2.6 0.00 0.00 0.00 74 1013.9
20260503020003 37 270 2.6 2.6 0.00 0.00 0.00 74 1013.9